Location: Binningen
(47.7924°N, 8.7261°E)
Time: 04:45:27
(UTC+00:00)

ISS - Pass Details

Date: 17 May 2021
Orbit: 417 x 422 km, 51.6° (Epoch: 14 June)

Event Time Altitude Azimuth Distance (km) Brightness Sun altitude
Rises 23:16:41 0° 288° (WNW) 2,370 0.3 -22.6°
Reaches altitude 10° 23:18:50 10° 295° (WNW) 1,506 -0.7 -22.7°
Maximum altitude 23:22:07 47° 11° (N) 566 -2.8 -22.7°
Enters shadow 23:22:51 39° 51° (NE) 647 -2.6 -22.7°
